Date String (YYYY-MM-DD hh:mm:ss) UTC,Instrument flags,Ambient pressure (hPa),Sample flow (lpm),Bypass flow (lpm),Sample temperature (°C),Ambient temperature (°C),ASC tube jacket temperature (°C),LED temperature (°C),Box temperature (°C),Sample RH (%),Span deviation,Mass concentration (μg/m³),Mass concentration (μg/m³),Mass concentration (μg/m³)
DateTimeUTC,F1_M11,P_M11,Q1_M11,Q2_M11,T1_M11,T2_M11,T3_M11,T4_M11,T5_M11,U1_M11,ZSPAN_M11,X0_M11,X2_M11,X1_M11
2022-07-14 03:00:00,,0829.5,5.02,0.00,29.4,28.3,00.0,38.1,31.4,21.4,0000.0,0007.65,0004.33,0003.93
2022-07-14 03:01:00,,0829.5,5.00,0.00,29.4,28.4,00.0,38.1,31.4,21.4,0000.0,0007.60,0004.32,0003.93
2022-07-14 03:02:00,,0829.5,5.00,0.00,29.5,28.4,00.0,38.1,31.5,21.5,0000.0,0007.68,0004.32,0003.94
2022-07-14 03:03:00,,0829.6,5.00,0.00,29.5,27.7,00.0,38.1,31.4,22.6,0000.0,0007.86,0004.33,0003.94
2022-07-14 03:04:00,,0829.5,5.00,0.00,29.4,27.0,00.0,38.0,31.2,22.6,0000.0,0007.68,0004.35,0003.94
2022-07-14 03:05:00,,0829.6,5.01,0.00,29.4,26.9,00.0,38.0,31.1,22.9,0000.0,0007.72,0004.38,0003.94
2022-07-14 03:06:00,,0829.6,5.00,0.00,29.3,26.9,00.0,38.0,31.0,23.3,0000.0,0007.89,0004.38,0003.93
2022-07-14 03:07:00,,0829.6,5.00,0.00,29.3,27.1,00.0,38.0,31.0,24.0,0000.0,0007.93,0004.39,0003.94
2022-07-14 03:08:00,,0829.6,5.00,0.00,29.2,27.3,00.0,38.0,31.0,24.5,0000.0,0008.02,0004.43,0003.96
2022-07-14 03:09:00,,0829.6,4.99,0.00,29.3,27.5,00.0,38.0,31.1,24.8,0000.0,0008.29,0004.47,0003.98
2022-07-14 03:10:00,,0829.5,5.01,0.00,29.3,27.7,00.0,38.0,31.1,25.0,0000.0,0009.12,0004.55,0004.00
2022-07-14 03:11:00,,0829.6,5.00,0.00,29.3,27.9,00.0,38.0,31.2,25.3,0000.0,0009.40,0004.61,0004.01
2022-07-14 03:12:00,,0829.6,5.00,0.00,29.3,28.0,00.0,38.0,31.3,25.4,0000.0,0009.74,0004.70,0004.04
2022-07-14 03:13:00,,0829.5,5.00,0.00,29.4,28.2,00.0,38.1,31.3,25.5,0000.0,0009.91,0004.76,0004.07
2022-07-14 03:14:00,,0829.6,5.00,0.00,29.4,28.3,00.0,38.1,31.4,25.6,0000.0,0010.34,0004.85,0004.10
2022-07-14 03:15:00,,0829.6,5.00,0.00,29.4,28.4,00.0,38.1,31.4,25.4,0000.0,0010.45,0004.93,0004.15
2022-07-14 03:16:00,,0829.6,5.00,0.00,29.5,28.3,00.0,38.1,31.4,25.4,0000.0,0010.90,0004.98,0004.19
2022-07-14 03:17:00,,0829.6,5.01,0.00,29.4,27.5,00.0,38.0,31.3,25.5,0000.0,0011.56,0005.05,0004.24
2022-07-14 03:18:00,,0829.5,4.99,0.00,29.4,26.9,00.0,38.0,31.2,25.7,0000.0,0012.37,0005.07,0004.27
2022-07-14 03:19:00,,0829.5,5.00,0.00,29.3,26.8,00.0,38.0,31.1,25.7,0000.0,0013.51,0005.12,0004.28
2022-07-14 03:20:00,,0829.5,4.99,0.00,29.3,26.9,00.0,38.0,31.0,25.7,0000.0,0013.62,0005.16,0004.29
2022-07-14 03:21:00,,0829.5,5.00,0.00,29.2,27.1,00.0,38.0,31.0,25.7,0000.0,0013.21,0005.21,0004.30
2022-07-14 03:22:00,,0829.5,4.99,0.00,29.2,27.3,00.0,38.0,31.0,25.7,0000.0,0013.57,0005.26,0004.31
2022-07-14 03:23:00,,0829.5,5.01,0.00,29.2,27.5,00.0,38.0,31.1,25.7,0000.0,0014.03,0005.30,0004.32
2022-07-14 03:24:00,,0829.5,5.00,0.00,29.2,27.7,00.0,38.0,31.1,25.5,0000.0,0014.90,0005.38,0004.34
2022-07-14 03:25:00,,0829.6,5.00,0.00,29.3,27.8,00.0,38.0,31.2,25.4,0000.0,0015.34,0005.42,0004.35
2022-07-14 03:26:00,,0829.5,4.99,0.00,29.3,28.0,00.0,38.0,31.2,25.4,0000.0,0015.63,0005.41,0004.36
2022-07-14 03:27:00,,0829.5,5.00,0.00,29.3,28.1,00.0,38.1,31.3,25.2,0000.0,0015.18,0005.44,0004.38
2022-07-14 03:28:00,,0829.6,5.00,0.00,29.4,28.3,00.0,38.1,31.4,25.1,0000.0,0014.46,0005.44,0004.39
2022-07-14 03:29:00,,0829.5,4.99,0.00,29.4,28.4,00.0,38.1,31.4,24.9,0000.0,0013.75,0005.45,0004.40
2022-07-14 03:30:00,,0829.5,5.01,0.00,29.5,28.5,00.0,38.1,31.5,24.8,0000.0,0012.92,0005.47,0004.42
2022-07-14 03:31:00,,0829.5,5.00,0.00,29.5,28.3,00.0,38.1,31.5,24.6,0000.0,0012.89,0005.51,0004.44
2022-07-14 03:32:00,,0829.5,5.00,0.00,29.5,27.5,00.0,38.1,31.3,24.6,0000.0,0013.80,0005.49,0004.46
2022-07-14 03:33:00,,0829.5,5.00,0.00,29.4,26.9,00.0,38.0,31.2,24.7,0000.0,0013.47,0005.43,0004.48
2022-07-14 03:34:00,,0829.6,4.99,0.00,29.3,26.9,00.0,38.0,31.1,24.6,0000.0,0013.10,0005.38,0004.50
2022-07-14 03:35:00,,0829.6,5.01,0.00,29.3,27.0,00.0,38.0,31.0,24.6,0000.0,0012.61,0005.39,0004.51
2022-07-14 03:36:00,,0829.5,4.99,0.00,29.2,27.1,00.0,38.0,31.0,24.6,0000.0,0013.37,0005.41,0004.51
2022-07-14 03:37:00,,0829.5,4.99,0.00,29.2,27.3,00.0,38.0,31.1,24.5,0000.0,0013.65,0005.40,0004.52
2022-07-14 03:38:00,,0829.5,5.01,0.00,29.2,27.5,00.0,38.0,31.1,24.4,0000.0,0014.45,0005.47,0004.52
2022-07-14 03:39:00,,0829.5,4.99,0.00,29.3,27.7,00.0,38.0,31.1,24.2,0000.0,0015.62,0005.51,0004.52
2022-07-14 03:40:00,,0829.5,5.00,0.00,29.3,27.8,00.0,38.0,31.2,24.0,0000.0,0016.30,0005.54,0004.51
2022-07-14 03:41:00,,0829.6,5.00,0.00,29.3,28.0,00.0,38.0,31.2,23.8,0000.0,0016.72,0005.55,0004.50
2022-07-14 03:42:00,,0829.5,5.01,0.00,29.3,28.1,00.0,38.1,31.3,23.6,0000.0,0016.51,0005.48,0004.48
2022-07-14 03:43:00,,0829.5,5.01,0.00,29.4,28.2,00.0,38.1,31.3,23.2,0000.0,0015.29,0005.42,0004.47
2022-07-14 03:44:00,,0829.5,5.00,0.00,29.4,28.3,00.0,38.1,31.4,23.2,0000.0,0015.03,0005.44,0004.44
2022-07-14 03:45:00,,0829.5,5.00,0.00,29.4,28.4,00.0,38.1,31.4,23.2,0000.0,0014.98,0005.42,0004.43
2022-07-14 03:46:00,,0829.6,5.00,0.00,29.5,28.5,00.0,38.1,31.5,23.3,0000.0,0015.02,0005.39,0004.41
2022-07-14 03:47:00,,0829.6,4.99,0.00,29.5,27.9,00.0,38.1,31.4,23.3,0000.0,0013.68,0005.33,0004.40
2022-07-14 03:48:00,,0829.6,5.00,0.00,29.4,27.1,00.0,38.0,31.3,23.4,0000.0,0013.10,0005.30,0004.39
2022-07-14 03:49:00,,0829.7,5.00,0.00,29.4,26.8,00.0,38.0,31.2,23.4,0000.0,0012.87,0005.21,0004.37
2022-07-14 03:50:00,,0829.7,5.00,0.00,29.3,26.9,00.0,38.0,31.0,23.5,0000.0,0011.81,0005.19,0004.36
2022-07-14 03:51:00,,0829.6,5.00,0.00,29.3,27.0,00.0,38.0,31.0,23.6,0000.0,0011.54,0005.16,0004.37
2022-07-14 03:52:00,,0829.7,5.00,0.00,29.2,27.2,00.0,38.0,31.0,23.7,0000.0,0011.05,0005.11,0004.36
2022-07-14 03:53:00,,0829.7,5.01,0.00,29.2,27.4,00.0,38.0,31.1,23.7,0000.0,0010.83,0005.11,0004.35
2022-07-14 03:54:00,,0829.6,4.99,0.00,29.2,27.6,00.0,38.0,31.1,23.5,0000.0,0011.02,0005.16,0004.34
2022-07-14 03:55:00,,0829.6,5.02,0.00,29.3,27.7,00.0,38.0,31.1,23.4,0000.0,0011.00,0005.16,0004.35
2022-07-14 03:56:00,,0829.6,4.99,0.00,29.3,27.9,00.0,38.0,31.2,23.4,0000.0,0011.04,0005.18,0004.36
2022-07-14 03:57:00,,0829.6,5.00,0.00,29.3,28.0,00.0,38.0,31.3,23.3,0000.0,0010.42,0005.14,0004.35
2022-07-14 03:58:00,,0829.5,5.00,0.00,29.3,28.2,00.0,38.1,31.3,23.2,0000.0,0010.34,0005.13,0004.35
2022-07-14 03:59:00,,0829.6,5.00,0.00,29.4,28.3,00.0,38.1,31.4,23.2,0000.0,0010.42,0005.14,0004.35
